Home   Weather   Salinas   Past weeks

Flag for USA Past Weather in Salinas, California, USA — Yesterday and Last 2 Weeks

Now
45 °F

Passing clouds.


Feels Like: 44 °F
Forecast: 43 / 54 °F
Wind: 3 mph from Northwest

Location: Salinas Municipal Airport

Current Time: Feb 22, 2017 at 5:01:01 am

Latest Report: Feb 22, 2017 at 4:33 am


Visibility: 7 mi

Pressure: 30.26 "Hg

Humidity: 93%

Dew Point: 43 °F

Location of SalinasLocation

Past Weather in Salinas — Graph

°F

Salinas Temperature Yesterday

Maximum temperature yesterday: 64 °F (at 12:53 pm)
Minimum temperature yesterday: 50 °F (at 11:53 pm)
Average temperature yesterday: 55 °F

High & Low Weather Summary for the Past Weeks

 TemperatureHumidityPressure
High71 °F (Feb 14, 2:53 pm)100% (Feb 9, 2:00 am)30.29 "Hg (Feb 9, 2:00 am)
Low42 °F (Feb 12, 4:53 am)34% (Feb 14, 2:53 pm)29.12 "Hg (Feb 17, 3:29 pm)
Average56 °F83%29.99 "Hg
* Reported Feb 7 3:03 am — Feb 22 2:53 am, Salinas, Weather by CustomWeather, © 2017

Note: Actual official high and low records may vary slightly from our data, if they occured in-between our weather recording intervals... More about our weather records

Advertising

Salinas Weather History for the Previous 24 Hours

Scroll right to see more
 ConditionsComfort  
Time TempWeatherWind HumidityBarometerVisibility
2:53 am
Wed, Feb 22
47 °FPassing clouds.No wind93%30.27 "Hg10 mi
1:53 am49 °FPassing clouds.6 mph90%30.29 "Hg10 mi
12:53 am49 °FPassing clouds.5 mph90%30.29 "Hg10 mi
12:23 am50 °FPartly cloudy.No wind86%30.26 "Hg10 mi
11:53 pm
Tue, Feb 21
50 °FPassing clouds.6 mph89%30.28 "Hg10 mi
11:20 pm51 °FPassing clouds.3 mph86%30.25 "Hg10 mi
10:53 pm51 °FPassing clouds.5 mph83%30.28 "Hg10 mi
10:43 pm51 °FPartly cloudy.6 mph86%30.26 "Hg10 mi
10:15 pm51 °FMostly cloudy.3 mph86%30.26 "Hg10 mi
10:05 pm51 °FMostly cloudy.No wind86%30.26 "Hg10 mi
9:53 pm51 °FOvercast.5 mph86%30.29 "Hg10 mi
9:21 pm52 °FMostly cloudy.No wind80%30.26 "Hg10 mi
8:53 pm51 °FLight rain. Overcast.6 mph83%30.28 "Hg10 mi
8:24 pm53 °FPartly cloudy.N/A83%30.24 "Hg10 mi
7:53 pm53 °FClear.3 mph80%30.25 "Hg10 mi
6:53 pm54 °FPassing clouds.7 mph80%30.24 "Hg10 mi
5:53 pm57 °FPassing clouds.9 mph69%30.23 "Hg10 mi
4:53 pm59 °FMostly cloudy.10 mph67%30.22 "Hg10 mi
3:53 pm60 °FOvercast.12 mph72%30.22 "Hg10 mi
2:53 pm57 °FLight rain. Mostly cloudy.13 mph74%30.23 "Hg6 mi
1:53 pm58 °FMostly cloudy.17 mph67%30.22 "Hg10 mi
12:53 pm64 °FBroken clouds.15 mph50%30.23 "Hg10 mi
11:53 am63 °FMostly cloudy.12 mph60%30.26 "Hg10 mi
10:53 am61 °FPartly sunny.5 mph65%30.26 "Hg10 mi
9:53 am59 °FSunny.No wind78%30.26 "Hg10 mi
8:53 am55 °FSunny.3 mph87%30.25 "Hg10 mi
7:53 am52 °FScattered clouds.No wind93%30.24 "Hg10 mi
6:53 am51 °FScattered clouds.No wind89%30.21 "Hg10 mi
5:53 am51 °FMostly cloudy.No wind92%30.21 "Hg10 mi
Weather by CustomWeather, © 2017

See weather overviewHow to use our weather pages